Miscellaneous Local Product
Issued by NWS North Platte, NE

Home | Current Version | Previous Version | Text Only | Print | Product List | Glossary On
Versions: 1 2 3 4 5 6 7 8 9 10 11 12 13 14 15 16 17 18 19 20 21 22 23 24 25 26 27 28 29 30 31 32 33 34 35 36 37 38 39 40 41 42 43 44 45 46 47 48 49 50
000
AXUS43 KLBF 290010
MISLBF


WESTERN AND NORTH CENTRAL NEBRASKA HOURLY WEATHER ROUNDUP
NATIONAL WEATHER SERVICE NORTH PLATTE NE
600 PM CST FRI NOV 28 2014

***STATIONS NOT REPORTING VARIABLES SUCH AS SKY/WEATHER OR
PRESSURE ARE PROVIDED BY THE NEBRASKA DEPARTMENT OF
ROADS...RAWS...AND APRS NETWORKS...AND ARE NOT UNDER
NATIONAL WEATHER SERVICE QUALITY CONTROL***

...OBSERVATIONS IN AND NEAR THE EASTERN PANHANDLE OF NEBRASKA...

CITY           SKY/WX    TMP DP  RH WIND       PRES   REMARKS
PINE RIDGE     MOCLDY    51  24  34 W7        29.63S
CHADRON        PTCLDY   N/A N/A N/A SW13      29.64S
ALLIANCE       MOCLDY    47  20  34 S10       29.71R
SIDNEY         CLOUDY    52  21  29 W13       29.77S
WHITECLAY        N/A     54  23  30 W8          N/A
LISCO            N/A     42  24  47 S5          N/A
BIG SPRINGS      N/A     42  30  61 SW3         N/A
$$

...OBSERVATIONS IN NORTH CENTRAL NEBRASKA...

CITY           SKY/WX    TMP DP  RH WIND       PRES   REMARKS
VALENTINE      MOCLDY    47  26  44 S7        29.61F
THEDFORD       MOCLDY    56  20  25 W6        29.66S
AINSWORTH      CLOUDY    46  28  48 S6        29.62S
O`NEILL        CLOUDY    47  30  51 CALM      29.62S
ORD            MOCLDY    52  22  30 NW5       29.63S
BROKEN BOW     MOCLDY    53  22  29 SW9       29.66S
BROWNLEE         N/A     62  19  18 CALM        N/A
SPRINGVIEW       N/A     42  32  67 CALM        N/A
BREWSTER         N/A     55  21  27 W8          N/A
SARGENT          N/A     57  23  27 CALM        N/A
COMSTOCK         N/A     62  21  20 W8          N/A
CHAMBERS         N/A     44  21  40 CALM        N/A
EWING            N/A     49  31  51 CALM        N/A
$$

...OBSERVATIONS IN SOUTHWEST NEBRASKA AND FAR NORTHEAST COLORADO...

CITY           SKY/WX    TMP DP  RH WIND       PRES   REMARKS
WRAY           FAIR      56  20  25 SW7       29.76S
HOLYOKE        FAIR      46  28  49 W7        29.75F
IMPERIAL       MOCLDY    55  18  23 W3        29.73F
OGALLALA       CLOUDY    45  29  53 W6        29.72S
NORTH PLATTE   MOCLDY    52  22  30 NW5       29.70S
MCCOOK         MOCLDY    67  10  11 NW7       29.71S
LEXINGTON      CLOUDY    58  19  22 W10       29.69S
PAXTON           N/A     50  25  37 CALM        N/A
BRADY            N/A     57  23  26 CALM        N/A
GOTHENBURG       N/A     62  19  19 CALM        N/A
CALLAWAY         N/A     54  22  28 SW10        N/A
$$

...NORTH PLATTE AREA...

CITY           SKY/WX    TMP DP  RH WIND       PRES   REMARKS
AIRPORT        MOCLDY    52  22  30 NW5       29.70S
DOWNTOWN         N/A     58  24  27 CALM        N/A
$$

...SOME WEATHER OBSERVATIONS FROM AROUND THE REGION...

CITY           SKY/WX    TMP DP  RH WIND       PRES   REMARKS
DENVER         CLOUDY    51  19  28 S10       29.82S
LARAMIE        PTCLDY    41  14  33 S13       29.89F
CHEYENNE       CLOUDY    52  13  21 SW16      29.84S
SCOTTSBLUFF    MOCLDY    51  23  33 CALM      29.73R
RAPID CITY     MOCLDY    52  23  32 NW8       29.57S
PIERRE         PTCLDY    30  24  78 NE8       29.58S WCI  22
WINNER         FAIR      46  30  53 SE8       29.60S
SIOUX FALLS    PTCLDY    29  26  89 E6        29.68R WCI  23
OMAHA          MOCLDY    42  30  62 SE8       29.70R
GRAND ISLAND   CLOUDY    55  26  32 W9        29.66R
KANSAS CITY    PTCLDY    53  35  50 S17       29.77F
WICHITA        MOCLDY    55  36  48 S13       29.81S
HAYS           PTCLDY    61  21  21 S7        29.74R
LIBERAL        MOCLDY    64  25  22 E6        29.80F
GOODLAND       CLOUDY    48  15  26 CALM      29.77S
$$



USA.gov is the U.S. government's official web portal to all federal, state and local government web resources and services.